Regional Weather Roundup
Issued by NWS Grand Forks, ND

Home | Current Version | Previous Version | Graphics & Text | Print | Product List | Glossary On
Versions: 1 2 3 4 5 6 7 8 9 10 11 12 13 14 15 16 17 18 19 20 21 22 23 24 25 26 27 28 29 30 31 32 33 34 35 36 37 38 39 40 41 42 43 44 45 46 47 48 49 50
000
ASUS43 KFGF 171331
RWRFGF
PRAIRIE TO PINES  WEATHER ROUNDUP
NATIONAL WEATHER SERVICE EASTERN NORTH DAKOTA/GRAND FORKS ND
700 AM CST SAT FEB 17 2018

 **SATELLITE DATA USED TO AUGMENT SKY COVER AT AUTOMATED STATIONS**
 *****  WEATHER ACROSS EASTERN NORTH DAKOTA  *****

CITY           SKY/WX    TMP DP  RH WIND       PRES   REMARKS
GRAND FORKS    FAIR      13   9  84 W10       29.81R WCI   0
GRAND FRKS AFB FAIR      13   8  77 NW9       29.81R WCI   1
GRAND FRKS NWS   N/A     12  10  91 W6        29.79R WCI   3
DEVILS LAKE    FAIR      10   7  87 W15       29.81R WCI  -7
FARGO          FAIR      16  12  84 W10       29.83R WCI   4
WAHPETON ARPT  FAIR      12   9  85 W8        29.86R WCI   1
$$

 ***** WEATHER ACROSS CENTRAL AND WESTERN NORTH DAKOTA  *****

CITY           SKY/WX    TMP DP  RH WIND       PRES   REMARKS
BISMARCK       CLOUDY    18  14  84 NW8       29.90R WCI   8
MINOT          FAIR      11   6  81 W10       29.86R WCI  -3
JAMESTOWN      FAIR      13  10  88 W10       29.83R WCI   0
MINOT AFB      CLOUDY    10   5  80 NW13        N/A  WCI  -6
GARRISON         N/A      9   6  88 NW10      29.88R WCI  -5
WILLISTON      FAIR      12   8  84 W10       29.95R WCI  -1
DICKINSON      FAIR      12   9  87 W15       29.87R WCI  -4
HETTINGER      MOCLDY    18  14  84 NW16      29.90R WCI   3
$$

 *****  OTHER AIRPORT OBSERVATIONS IN OUR AREA  *****

CITY           SKY/WX    TMP DP  RH WIND       PRES   REMARKS
WALHALLA       FAIR      10  10 100 NW8       29.80R WCI  -1
GRAFTON AIRPOR FAIR      10   7  85 W12       29.83R WCI  -4
VALLEY CITY AR FAIR      10  10 100 W12       29.86R WCI  -4
CANDO          FAIR       3   3 100 W9        29.84R WCI -11
CAVALIER APRT    N/A      9   7  92 NW9       29.80R WCI  -5
GWINNER          N/A     14  12  92 W8        29.86R WCI   3
SHEYENNE NWR     N/A     13  11  92 W7        29.95S WCI   3
ROLLA          FAIR       9   0  66 NW17G24   29.79R WCI -10
 ***** THE ABOVE OBSERVATIONS ARE NON NWS ARE NOT QUALITY
       CONTROLLED AND MAY MIS-REPORT RAIN FOR SNOW...
$$

  *****  WEATHER ACROSS NORTHERN MINNESOTA  *****

CITY           SKY/WX    TMP DP  RH WIND       PRES   REMARKS
FLAG ISLAND    FAIR       5   1  85 NW9       29.71R WCI  -9
WARROAD        FAIR       9   5  85 W8        29.74R WCI  -4
ROSEAU         NOT AVBL
HALLOCK        FAIR       5   3  92 W6        29.79R WCI  -6
THF RVR FALLS  CLOUDY    12   8  84 W9        29.79R WCI   0
BAUDETTE       FAIR      12   6  77 W9        29.70R WCI   0
WASKISH        FAIR      10   9  92 SW9       29.74R WCI  -2
CROOKSTON      FAIR      10   7  85 W7        29.82S WCI   0
STEPHEN NDAWN    N/A     10   7  85 W8          N/A  WCI  -1
GREENBUSH NDAW   N/A      9   3  78 W8          N/A  WCI  -4
$$
  *****  WEATHER ACROSS CENTRAL AND WEST MINNESOTA  *****

CITY           SKY/WX    TMP DP  RH WIND       PRES   REMARKS
FOSSTON        MOCLDY    12   9  85 W6        29.79R WCI   3
BEMIDJI        FAIR      13  10  85 W9        29.75R WCI   1
PARK RAPIDS    FAIR       7   3  84 W7        29.76R FOG     WCI  -5
ELBOW LAKE     FAIR      16  13  88 NW7       29.84R WCI   6
WADENA         FAIR      16  12  86 W6        29.78R WCI   7
DETROIT LAKES  FAIR      18  14  86 W8        29.80R WCI   7
MOORHEAD       FAIR      16  10  79 W7        29.84R WCI   6
FERGUS FALLS   FAIR      12  10  92 NW7       29.84R WCI   2
MORRIS MN      FAIR      16  12  86 W5        29.83R WCI   9
STAPLES        FAIR      16  12  86 W6        29.79R WCI   7
$$
  *****  WEATHER ELSEWHERE ACROSS MINNESOTA  *****

CITY           SKY/WX    TMP DP  RH WIND       PRES   REMARKS
DULUTH         FAIR      14   9  80 SW9       29.73F WCI   2
INTRNTL FALLS  CLOUDY    17  11  77 W7        29.68R WCI   8
ELY            CLOUDY    12   9  85 SW7       29.69S WCI   2
CLOQUET        FAIR      12   9  85 SW6       29.76S WCI   3
WHEATON        FAIR      18  12  79 W6        29.88R WCI   9
BRAINERD       FAIR      14   9  80 SW6       29.78S WCI   5
HIBBING        FAIR       9   6  88 SW6       29.71F WCI  -1
ALEXANDRIA     FAIR      18  14  84 W6        29.80R WCI  10
SAINT CLOUD    MOCLDY    19  14  81 S5        29.82F WCI  12
MINNEAPOLIS    CLOUDY    25  16  68 SW8       29.87S WCI  16
$$

  *****  WEATHER ACROSS SOUTH DAKOTA  *****

CITY           SKY/WX    TMP DP  RH WIND       PRES   REMARKS
SIOUX FALLS    CLOUDY    25  23  92 SW3       29.87R
BROOKINGS      CLOUDY    25  21  86 W9        29.85S FOG     WCI  15
WATERTOWN      FAIR      17  16  95 W3        29.82R
HURON          FAIR      14  13  95 W8        29.87R WCI   3
SISSETON         N/A     19  15  84 NW12      29.84R WCI   7
ABERDEEN       FAIR      19  16  88 NW9       29.87R WCI   8
MITCHELL       FAIR      24  23  96 W8        29.88S WCI  15
PIERRE         LGT SNOW  22  20  92 W9        29.90S FOG     WCI  12
MOBRIDGE       FAIR      20  14  77 NW8       29.85R WCI  10
RAPID CITY     FAIR      28  19  69 NW22G30   29.91R WCI  14
$$

  *****  SOME WEATHER IN NEARBY STATES *****

CITY           SKY/WX    TMP DP  RH WIND       PRES   REMARKS
GLASGOW MT     FAIR       5   0  79 NW8       30.00R WCI  -8
GREAT FALLS MT FAIR      10   8  92 S7        29.94F FOG     WCI  -1
CHEYENNE WY    FAIR      28  10  46 W24G40    29.95R WCI  14
SCOTTSBLUFF NE FAIR      30  17  58 W9        29.96R WCI  22
OMAHA NE       CLOUDY    29  16  58 S10       29.91R WCI  20
DES MOINES IA  CLOUDY    27  12  53 SE7       29.93F WCI  19
DAVENPORT IA   CLOUDY    23  13  65 S8        30.07F WCI  14
CHICAGO IL     CLOUDY    19   9  65 S3        30.11F
EAU CLAIRE WI  CLOUDY    19  10  68 S6        29.88F WCI  11
LA CROSSE WI   CLOUDY    22   9  57 S12       29.96F WCI  10
$$

  *****  SOME NATIONAL WEATHER *****

CITY           SKY/WX    TMP DP  RH WIND       PRES   REMARKS
LA GUARDIA NY  PTSUNNY   32  16  51 NW6       30.42R
RALEIGH NC     CLOUDY    45  32  60 E9        30.30S
ATLANTA GA     CLOUDY    53  49  86 E5        30.14S
NEW ORLEANS LA MOCLDY    67  67 100 SE5       30.11R FOG
OKLAHOMA CITY  MOCLDY    35  33  92 S13       30.02F
ALBUQUERQUE NM FAIR      37  35  92 N5        30.20R
SALT LAKE CITY FAIR      32  18  56 VRB7      30.20S
LOS ANGELES CA FAIR      52  30  43 E3        30.09S
BOISE ID       CLOUDY    33  27  78 SE7       30.14S
SEATTLE WA     LGT RAIN  45  42  89 S17       29.90F
$$

*** WEATHER ACROSS MANITOBA...SASKATCHEWAN AND ONTARIO ***
                ***ONTARIO***

CITY           SKY/WX    TMP DP  RH WIND       PRES   REMARKS
GERALDTON      LGT SNOW  16  12  86 SW10      29.56F VSB 1   WCI   3
THUNDER BAY    CLOUDY    19  12  73 SW10      29.68F WCI   8
SIOUX LOOKOUT  LGT SNOW  12   9  85 NW13      29.57R DRFTSNOWWCI  -3
TORONTO        MOCLDY    23  18  80 SW9       30.24S WCI  13
BIG TROUT LK   FLURRIES  -6  -9  84 W9        29.46R WCI -22
PICKLE LAKE    FLURRIES   7   3  85 W8        29.48S WCI  -6
DRYDEN         FLURRIES  10   5  79 W16       29.59R WCI  -7
KENORA         FLURRIES   5   1  85 W8        29.66R WCI  -8
$$
                *** MANITOBA***

CITY           SKY/WX    TMP DP  RH WIND       PRES   REMARKS
BRANDON        PTCLDY     0  -6  78 W16       29.80R WCI -21
DAUPHIN        CLEAR      5  -4  66 W18       29.78S WCI -15
ISLAND LAKE    FLURRIES  -4  -9  77 W5        29.55S WCI -15
PILOT MOUND      N/A      9   3  78 NW14G20     N/A  WCI  -8
THE PAS        FLURRIES   0  -8  71 W12       29.70R WCI -18
THOMPSON       FLURRIES -13 -20  70 W9        29.57S WCI -31
WINNIPEG       PTCLDY     1  -2  85 W9        29.77R WCI -14
LYNN LAKE      FLURRIES -13 -17  84 W8        29.53R WCI -30
CHURCHILL      LGT SNOW -22 -29  69 NW18      29.50R BLWGSNOWWCI -50
GILLAM         PTCLDY   -15 -22  70 W8        29.51F WCI -32
$$
                ***SASKATCHEWAN***

CITY           SKY/WX    TMP DP  RH WIND       PRES   REMARKS
ESTEVAN        MOCLDY     9   5  85 W12       29.89R WCI  -6
KINDERSLEY     PTCLDY     1  -4  78 W13       29.94R WCI -16
LLOYDMINSTER   CLEAR      0  -6  78 W18       29.87R WCI -22
PRINCE ALBERT  LGT SNOW   3  -2  78 W8        29.85R FOG     WCI -10
REGINA         PTCLDY     7   1  78 W18       29.87R WCI -12
YORKTON        PTCLDY    -2  -8  78 W13       29.79R WCI -21
N. BATTLEFORD  CLOUDY     5  -4  66 W15       29.90S WCI -13
LA RONGE       FLURRIES   1  -4  78 W13G20    29.74R WCI -16
SASKATOON      MOCLDY    -4  -9  77 W14       29.90R WCI -24
SWIFT CURRENT  PTCLDY     0  -6  78 W13       29.91R WCI -18
$$
NOTE: THESE ARE AUTOMATED STATIONS WITH LIMITED QUALITY CONTROL
      "FAIR" INDICATES FEW OR NO CLOUDS BELOW 12,000 FEET WITH NO
      SIGNIFICANT WEATHER AND/OR OBSTRUCTIONS TO VISIBILITY.
      SKY/WX - SKY CONDITION AND SIGNIFICANT WEATHER.
      TMP - AIR TEMPERATURE.    DP   - DEWPOINT TEMPERATURE.
      RH  - RELATIVE HUMIDITY.  PRES - PRESSURE.
      HX  - HEAT INDEX.         WCI  - WIND CHILL INDEX.
$




USA.gov is the U.S. government's official web portal to all federal, state and local government web resources and services.